Weather History for KHIE - April, 2014

Change the Weather History Date:

Monday, April 21, 2014

  Actual Average Record
Temperature  
Mean Temperature 51 °F -  
Max Temperature 72 °F 53 °F 75 °F (2008)
Min Temperature 30 °F 25 °F 21 °F (2002)
Degree Days  
Heating Degree Days 14    
Growing Degree Days 1 (Base 50)    
Moisture  
Dew Point 29 °F    
Average Humidity 48    
Maximum Humidity 82    
Minimum Humidity 18    
Precipitation  
Precipitation 0.00 in - - ()
Sea Level Pressure  
Sea Level Pressure 30.00 in    
Wind  
Wind Speed 2 mph (WSW)    
Max Wind Speed 14 mph    
Max Gust Speed 23 mph    
Visibility 10 miles    
Events      
Averages and records for this station are not official NWS values.
T = Trace of Precipitation, MM = Missing Value Source: NWS Daily Summary

Daily Weather History Graph

Daily Weather History Graph

Search for Another Location

Airport or City:

Trip Planner

Search our weather history database for the weather conditions in past years. The results will help you decide how hot, cold, wet, or windy it might be!

Date:

Astronomy

Apr. 21, 2014 Rise Set
Actual Time 5:52 AM EDT 7:38 PM EDT
Civil Twilight 5:21 AM EDT 8:09 PM EDT
Nautical Twilight 4:44 AM EDT 8:46 PM EDT
Astronomical Twilight 4:03 AM EDT 9:27 PM EDT
Moon 1:09 AM EDT (4/21) 11:12 AM EDT (4/21)
Length of Visible Light 14h 47m
Length of Day
13h 45m
Waning Gibbous, 58% of the Moon is Illuminated
Apr 21
Waning Gibbous
Apr 22
Last Quarter
Apr 29
New
May 6
First Quarter
May 14
Full

Hourly Weather History & Observations

Time (EDT) Temp. Windchill Dew Point Humidity Pressure Visibility Wind Dir Wind Speed Gust Speed Precip Events Conditions
12:52 AM 30.9 °F - 24.1 °F 76% 30.24 in 10.0 mi Calm Calm - N/A   Clear
1:52 AM 30.9 °F - 24.1 °F 76% 30.21 in 10.0 mi Calm Calm - N/A   Clear
2:52 AM 30.9 °F - 26.1 °F 82% 30.20 in 10.0 mi Calm Calm - N/A   Overcast
3:52 AM 30.9 °F - 26.1 °F 82% 30.19 in 10.0 mi Calm Calm - N/A   Partly Cloudy
4:52 AM 30.9 °F - 26.1 °F 82% 30.17 in 10.0 mi Calm Calm - N/A   Overcast
5:52 AM 32.0 °F 28.7 °F 27.0 °F 82% 30.14 in 10.0 mi SE 3.5 mph - N/A   Overcast
6:52 AM 35.1 °F - 27.0 °F 72% 30.15 in 10.0 mi Calm Calm - N/A   Overcast
7:52 AM 39.0 °F - 28.0 °F 65% 30.14 in 10.0 mi Calm Calm - N/A   Overcast
8:52 AM 46.0 °F - 26.1 °F 46% 30.12 in 10.0 mi Calm Calm - N/A   Overcast
9:52 AM 54.0 °F - 25.0 °F 33% 30.10 in 10.0 mi WNW 3.5 mph - N/A   Mostly Cloudy
10:52 AM 55.0 °F - 26.1 °F 33% 30.07 in 10.0 mi Calm Calm - N/A   Overcast
11:52 AM 59.0 °F - 27.0 °F 29% 30.03 in 10.0 mi Calm Calm - N/A   Mostly Cloudy
12:52 PM 66.9 °F - 32.0 °F 27% 29.98 in 10.0 mi WNW 10.4 mph 16.1 mph N/A   Partly Cloudy
1:52 PM 70.0 °F - 30.9 °F 24% 29.94 in 10.0 mi West 11.5 mph 23.0 mph N/A   Mostly Cloudy
2:52 PM 70.0 °F - 28.9 °F 22% 29.91 in 10.0 mi WSW 6.9 mph - N/A   Clear
3:52 PM 71.1 °F - 28.9 °F 21% 29.88 in 10.0 mi SW 9.2 mph 19.6 mph N/A   Clear
4:52 PM 72.0 °F - 27.0 °F 19% 29.85 in 10.0 mi West 13.8 mph 21.9 mph N/A   Clear
5:52 PM 70.0 °F - 24.1 °F 18% 29.84 in 10.0 mi West 8.1 mph - N/A   Scattered Clouds
6:52 PM 68.0 °F - 25.0 °F 20% 29.83 in 10.0 mi WSW 5.8 mph - N/A   Overcast
7:52 PM 62.1 °F - 30.9 °F 31% 29.83 in 10.0 mi Calm Calm - N/A   Overcast
8:52 PM 55.0 °F - 36.0 °F 49% 29.84 in 10.0 mi South 4.6 mph - N/A   Overcast
9:52 PM 54.0 °F - 36.0 °F 51% 29.83 in 10.0 mi Calm Calm - N/A   Overcast
10:52 PM 53.1 °F - 37.0 °F 55% 29.81 in 10.0 mi Calm Calm - N/A   Overcast
11:52 PM 50.0 °F - 39.0 °F 66% 29.80 in 10.0 mi Calm Calm - N/A   Overcast